Tracking 25686 objects as of 26-May-2022
HD Live streaming from Space Station
objects crossing your sky now

EAGLESAT-1

Track EAGLESAT-1 now!
10-day predictions
EAGLESAT-1 is classified as:


NORAD ID: 43018
Int'l Code: 2017-073F
Perigee: 457.4 km
Apogee: 793.8 km
Inclination: 97.7 °
Period: 97.1 minutes
Semi major axis: 6996 km
RCS: Unknown
Launch date: November 18, 2017
Source: United States (US)
Launch site: AIR FORCE WESTERN TEST RANGE (AFWTR)

Uplink (MHz):
Downlink (MHz): 437.645
Beacon (MHz):
Mode: 1200bps AFSK
Call sign:
Status: Inactive

aabbcc
Your satellite tracking list
Your tracking list is empty




NASA's NSSDC Master Catalog

Two Line Element Set (TLE):
1 43018U 17073F   22145.71954893  .00006900  00000-0  50697-3 0  9999
2 43018  97.6805  42.5240 0240377 256.4740 100.9593 14.83445102243728
Source of the keplerian elements: AFSPC